SCP
0 0 0 0 0 0 0 0 0 0 0 0 0 0 0 0 0 0 0 0 0 0 0 0 1 1 1 1 1 1 1 0 0 0 0 0 0 0 0 0 0 0 0 0 0 0 0 0 0
0 0 0 0 0 0 0 0 0 0 0 0 0 0 0 0 0 0 0 0 0 0 0 0 1 1 1 1 1 1 1 0 0 0 0 0 0 0 0 0 0 0 0 0 0 0 0 0 0
0 0 0 0 0 0 0 0 0 0 0 0 0 0 0 0 0 0 0 0 0 0 0 0 1 1 1 1 1 1 1 0 0 0 0 0 0 0 0 0 0 0 0 0 0 0 0 0 0
0 0 0 0 0 0 0 0 0 0 0 0 0 0 0 0 0 0 0 0 0 0 0 0 1 1 1 1 1 1 0 0 0 0 0 0 0 0 0 0 0 0 0 0 0 0 0 0 0
0 0 0 0 0 0 0 0 0 0 0 0 0 0 0 0 0 0 0 0 0 0 0 0 1 1 1 1 1 0 0 0 0 0 0 0 0 0 0 0 0 0 0 0 0 0 0 0 0
0 0 0 0 0 0 0 0 0 0 0 0 0 0 0 0 0 0 0 0 0 0 0 0 1 1 1 1 1 0 0 0 0 0 0 0 0 0 0 0 0 0 0 0 0 0 0 0 0
0 0 0 0 0 0 0 0 0 0 0 0 0 0 0 0 0 0 0 0 0 0 0 0 0 1 1 1 1 0 0 0 0 0 0 0 0 0 0 0 0 0 0 0 0 0 0 0 0
0 0 0 0 0 0 0 0 0 0 0 0 0 0 0 0 0 0 0 0 0 0 0 0 0 0 0 0 0 0 0 0 0 0 0 0 0 0 0 0 0 0 0 0 0 0 0 0 0
0 0 0 0 0 0 0 0 0 0 0 0 0 0 0 0 1 1 1 0 0 0 0 0 0 0 0 0 0 0 0 0 0 0 0 0 0 0 0 0 0 0 0 0 0 0 0 0 0
0 0 0 0 0 0 0 0 0 0 0 0 0 0 0 1 1 1 1 0 0 0 0 0 0 0 0 0 0 0 0 0 0 0 0 0 0 0 0 0 0 0 0 0 0 0 0 0 0
0 0 0 0 0 0 0 0 0 0 0 0 0 0 0 1 0 0 0 0 0 0 0 0 0 0 0 0 0 0 0 0 0 0 0 0 0 0 0 0 0 0 0 0 0 0 0 0 0
0 0 0 0 0 0 0 0 0 0 0 0 0 0 0 0 0 0 0 0 0 0 0 0 0 0 0 0 0 0 0 0 0 0 0 0 0 0 0 0 0 0 0 0 0 0 0 0 0
0 0 0 0 0 0 0 0 0 0 0 0 0 0 0 0 0 0 0 0 0 0 0 0 0 0 0 0 0 0 0 0 0 0 0 0 0 0 0 0 0 0 0 0 0 0 0 0 0
0 0 0 0 0 0 0 0 0 0 0 0 0 0 0 0 0 0 0 0 0 0 0 0 0 0 0 0 0 0 0 0 0 0 0 0 0 0 0 0 0 0 0 0 0 0 0 0 0
0 0 0 0 0 0 0 0 0 0 0 0 0 0 0 0 0 0 0 0 0 0 0 0 0 0 0 0 0 0 0 0 0 0 0 0 0 0 0 0 0 0 0 0 0 0 0 0 0
0 0 0 0 0 0 0 0 0 0 0 0 0 0 0 0 0 0 0 0 0 0 0 0 0 0 0 0 0 0 0 0 0 0 0 0 0 0 0 0 0 0 0 0 0 0 0 0 0
0 0 0 0 0 0 0 0 0 0 0 0 0 0 0 0 0 0 0 0 0 0 0 0 0 0 0 0 0 0 0 0 0 0 0 0 0 0 0 0 0 0 0 0 0 0 0 0 0
0 0 0 0 0 0 0 0 0 0 0 0 0 0 0 0 0 0 0 0 0 0 0 0 0 0 0 0 0 0 0 0 0 0 0 0 0 0 0 0 0 0 0 0 0 0 0 0 0
0 0 0 0 0 0 0 0 0 0 0 0 0 0 0 0 0 0 0 0 0 0 0 0 0 0 0 0 0 0 0 0 0 0 0 0 0 0 0 0 0 0 0 0 0 0 0 0 0
0 0 0 0 0 0 0 0 0 0 0 0 0 0 0 0 0 0 0 0 0 0 0 0 0 0 0 0 0 0 0 0 0 0 0 0 0 0 0 0 0 0 0 0 0 0 0 0 0
0 0 0 0 0 0 0 0 0 0 0 0 0 0 0 0 0 0 0 0 0 0 0 0 0 0 0 0 0 0 0 0 0 0 0 0 0 0 0 0 0 0 0 0 0 0 0 0 0
0 0 0 0 0 0 0 0 0 0 0 0 0 0 0 0 0 0 0 0 0 0 0 0 0 0 0 0 0 0 0 0 0 0 0 0 0 0 0 0 0 0 0 0 0 0 0 0 0
0 0 0 0 0 0 0 0 0 0 0 0 0 0 0 0 0 0 0 0 0 0 0 0 0 0 0 0 0 0 0 0 0 0 0 0 0 0 0 0 0 0 0 0 0 0 0 0 0
0 0 0 0 0 0 0 0 0 0 0 0 0 0 0 0 0 0 0 0 0 0 0 0 0 0 0 0 0 0 0 0 0 0 0 0 0 0 0 0 0 0 0 0 0 0 0 0 0
0 0 0 0 0 0 0 0 0 0 0 0 0 0 0 0 0 0 0 0 0 0 0 0 0 0 0 0 0 0 0 0 0 0 0 0 0 0 0 0 0 0 0 0 0 0 0 0 0
0 0 0 0 0 0 0 0 0 0 0 0 0 0 0 0 0 0 0 0 0 0 0 0 0 0 0 0 0 0 0 0 0 0 0 0 0 0 0 0 0 0 0 0 0 0 0 0 0
0 0 0 0 0 0 0 0 0 0 0 0 0 0 0 0 0 0 0 0 0 0 0 0 0 0 0 0 0 0 0 0 0 0 0 0 0 0 0 0 0 0 0 0 0 0 0 0 0
0 0 0 0 0 0 0 0 0 0 0 0 0 0 0 0 0 0 0 0 0 0 0 0 0 0 0 0 0 0 0 0 0 0 0 0 0 0 0 0 0 0 0 0 0 0 0 0 0
0 0 0 0 0 0 0 0 0 0 0 0 0 0 0 0 0 0 0 0 0 0 0 0 0 0 0 0 0 0 0 0 0 0 0 0 0 0 0 0 0 0 0 0 0 0 0 0 0
0 0 0 0 0 0 0 0 0 0 0 0 0 0 0 0 0 0 0 0 0 0 0 0 0 0 0 0 0 0 0 0 0 0 0 0 0 0 0 0 0 0 0 0 0 0 0 0 0
Wind_Speed
1 2 2 2 5 6 1 3 2 2 1 1 1 3 4 3 3 2 1 7 9 9 7 9 11 11 11 11 11 11 11 11 11 11 11 10 10 10 10 9 8 8 9 10 10 11 11 11 11
1 2 2 4 6 3 3 3 2 2 2 1 2 2 4 3 2 4 3 6 9 9 7 8 11 11 11 11 10 11 11 11 11 11 10 10 10 9 9 9 9 8 8 9 9 10 10 10 10
1 1 4 5 4 3 3 3 2 2 1 0 2 3 3 2 2 3 4 9 8 7 6 8 12 11 11 11 10 10 10 10 10 10 10 9 9 9 9 8 9 8 8 8 8 8 9 9 9
2 3 5 5 0 4 4 3 2 1 1 3 3 3 2 2 2 4 9 10 9 6 5 7 12 11 11 10 10 9 9 9 9 9 9 9 8 8 8 8 8 8 8 7 7 7 7 8 8
3 4 5 3 3 4 3 3 2 1 1 2 3 3 2 3 6 9 9 9 9 6 4 5 10 11 10 10 9 9 9 8 8 8 8 8 8 7 7 7 7 7 7 7 6 6 6 6 6
4 5 4 1 4 4 3 2 1 2 1 2 3 3 1 2 6 7 7 7 7 7 5 4 9 10 10 10 9 8 8 7 7 7 7 7 6 6 7 7 7 7 6 6 5 5 4 5 5
4 4 3 2 2 3 2 0 1 2 2 1 3 4 0 2 3 6 6 6 5 5 4 3 3 6 9 9 8 8 7 7 6 6 6 6 6 6 6 6 7 6 6 6 6 5 4 4 4
4 5 2 2 2 3 2 1 1 2 0 1 3 5 4 4 6 6 6 6 5 4 4 3 2 2 3 4 7 8 7 6 6 6 6 6 5 5 5 5 5 6 6 6 5 5 4 4 3
4 5 2 4 4 4 1 1 1 1 3 1 1 2 4 10 10 8 6 5 4 4 3 3 2 2 2 3 4 5 6 5 5 4 5 4 2 2 2 3 4 5 5 5 4 3 3 3 2
4 3 6 5 4 2 1 0 0 2 1 1 2 4 8 11 10 8 7 6 6 5 4 3 3 3 2 2 2 1 2 2 2 2 2 2 2 1 2 2 3 4 4 4 4 3 3 2 1
4 5 4 4 3 2 1 1 1 3 2 4 5 7 9 10 9 8 6 5 6 5 5 4 3 3 3 2 2 1 1 1 2 2 3 2 2 1 1 1 1 1 2 2 2 2 1 1 1
3 4 3 3 2 1 2 2 1 3 5 4 6 11 10 9 9 8 7 5 5 5 5 4 4 3 3 2 2 1 1 1 1 2 3 2 2 1 1 1 1 1 1 2 2 1 1 1 1
3 3 2 3 2 1 2 2 1 3 2 4 6 9 9 8 6 5 5 5 4 5 4 4 4 4 3 2 2 2 1 1 1 2 2 3 2 2 1 1 1 1 1 1 2 1 1 1 1
3 2 3 2 1 1 3 1 1 3 2 5 7 7 7 7 6 4 5 5 4 4 4 4 4 4 3 2 2 2 1 1 1 1 2 2 2 2 2 1 1 1 1 1 1 1 1 1 1
0 1 3 2 1 2 2 2 1 2 4 5 6 6 6 5 4 5 5 5 4 4 3 4 4 4 4 3 3 2 2 2 1 1 2 2 2 2 2 1 1 1 1 1 1 1 1 1 1
2 1 1 3 0 1 3 3 3 1 5 4 4 5 4 3 3 3 4 3 3 3 3 3 4 4 4 3 3 2 2 2 1 1 1 2 2 3 2 2 1 1 1 1 1 1 1 1 1
2 1 2 3 1 1 3 3 3 1 5 4 4 4 3 3 2 2 3 4 4 4 4 3 3 4 3 3 3 2 2 1 1 1 1 1 2 2 2 2 1 1 1 1 1 1 1 1 0
3 2 1 3 2 2 2 3 2 0 4 4 3 3 3 3 3 2 3 3 3 3 3 3 3 3 3 3 3 2 2 1 1 1 1 1 1 1 2 1 1 1 1 1 1 1 1 1 1
3 2 3 4 3 2 2 2 2 1 2 2 2 2 3 2 1 3 3 3 3 3 3 3 3 3 3 2 2 2 1 0 0 0 1 1 1 1 2 1 1 1 1 2 2 2 1 1 1
3 2 2 3 1 3 2 2 2 2 4 4 4 3 3 2 2 3 3 3 3 3 3 3 3 3 3 2 2 2 2 1 0 0 1 0 1 1 1 2 1 2 1 1 2 2 2 1 1
4 5 4 3 1 2 2 2 2 2 2 2 3 3 3 5 4 3 3 3 3 3 3 3 3 3 3 3 2 2 2 2 1 1 0 0 1 1 1 2 2 2 2 2 2 3 3 2 1
6 6 6 3 2 2 1 2 5 2 2 2 3 2 3 3 3 3 3 3 3 2 2 3 3 3 2 3 3 4 2 1 1 1 0 1 0 0 1 2 2 2 2 2 2 2 2 3 2
6 3 3 2 2 0 1 2 6 1 3 5 5 4 3 3 4 4 4 3 3 3 3 2 3 2 2 3 3 3 2 1 0 0 0 1 1 1 1 1 2 2 2 2 2 2 2 2 3
5 5 5 5 4 1 3 3 6 4 6 5 4 5 4 4 4 3 3 2 2 2 3 2 3 2 2 2 2 3 3 2 1 1 0 1 1 1 1 1 1 1 1 2 2 2 3 3 3
5 6 3 3 2 5 2 3 8 6 5 6 7 6 5 5 5 4 4 4 3 3 3 2 3 2 2 2 2 2 3 3 3 2 1 1 1 1 2 1 1 1 1 1 2 2 2 2 3
5 8 8 5 5 4 1 5 7 4 2 3 4 5 5 5 5 5 5 5 4 3 3 3 3 2 1 1 1 1 2 2 1 1 1 1 2 2 1 1 1 1 1 1 1 1 2 2 2
6 4 5 6 2 1 4 5 6 1 1 3 4 5 5 5 5 5 5 4 4 4 3 3 3 2 2 1 1 1 1 1 1 1 1 1 1 1 1 0 1 1 1 1 1 1 1 1 2
6 8 5 6 5 3 3 4 5 4 4 4 4 4 4 5 5 4 4 4 3 3 3 3 2 2 2 2 1 1 0 1 1 1 0 0 1 1 0 1 1 1 1 1 1 1 1 1 1
4 4 5 4 4 5 3 7 5 7 7 6 6 6 6 6 6 5 4 4 4 3 3 3 2 2 2 1 1 1 1 0 1 1 1 1 1 0 0 1 1 1 1 1 1 1 1 1 1
5 6 7 6 4 4 3 7 4 5 5 6 5 5 5 5 5 5 5 5 4 4 3 3 2 2 1 1 2 1 1 1 1 0 1 1 1 1 1 1 1 1 1 1 2 2 1 2 2
Wind_Direction
179 124 112 69 55 49 342 271 254 303 337 6 69 104 124 126 154 177 98 131 129 136 147 152 150 145 139 134 130 127 125 122 122 125 131 130 128 126 126 127 128 130 131 135 134 133 131 130 130
136 128 71 60 77 54 290 269 268 260 195 137 78 80 82 72 72 107 119 134 132 137 143 150 150 146 141 136 133 133 131 129 127 128 134 134 133 130 129 131 132 130 128 133 136 137 135 133 133
161 113 81 70 95 170 249 258 239 289 264 123 80 55 71 102 121 145 144 134 126 134 142 153 150 147 143 140 136 135 136 135 133 134 135 136 135 133 132 133 136 134 130 129 133 138 137 135 135
99 53 56 70 141 223 224 255 246 301 19 49 98 75 60 37 133 137 132 133 132 136 143 157 153 149 146 143 141 140 139 139 139 139 138 137 137 136 135 135 137 137 138 138 137 139 136 136 137
65 76 60 36 274 258 244 248 213 167 105 62 96 98 41 22 91 119 132 139 140 141 143 157 153 150 148 146 145 146 145 143 144 144 143 142 144 146 145 144 141 139 138 138 140 140 141 142 144
60 68 81 278 281 283 269 243 187 113 112 94 105 107 37 78 108 129 134 137 142 145 143 151 156 152 151 150 150 148 147 148 148 147 147 147 149 152 158 155 152 149 145 140 139 139 142 145 146
105 101 148 214 271 295 277 326 112 117 117 170 133 114 92 118 119 124 123 122 125 132 133 135 147 154 155 154 153 152 152 152 151 149 149 151 155 157 158 160 159 156 154 153 153 155 156 153 155
125 105 122 238 233 261 280 31 41 115 123 72 121 146 186 174 129 113 106 110 121 126 131 128 129 131 140 156 165 162 158 155 153 150 152 154 156 157 159 160 166 166 166 166 166 171 172 170 169
95 84 191 219 213 245 262 45 349 51 102 84 76 169 158 132 126 119 116 119 134 144 143 138 134 137 143 163 167 162 163 158 151 144 138 133 127 137 151 160 167 166 164 162 159 162 160 157 161
101 150 223 220 210 219 277 157 219 84 85 87 58 75 119 130 140 145 152 157 165 171 172 164 162 159 157 164 140 135 140 140 135 130 127 110 108 122 128 128 158 155 150 145 144 143 134 119 96
156 195 235 255 236 211 235 259 158 143 218 208 174 149 142 146 154 160 166 170 175 174 173 175 172 165 157 146 139 126 123 128 127 131 126 114 101 94 80 72 89 119 133 114 112 110 101 105 122
177 237 224 255 228 176 199 196 151 188 214 195 166 151 154 163 168 168 167 172 170 169 181 174 169 165 162 152 141 141 145 144 144 136 133 128 126 118 113 106 91 91 100 111 108 105 94 100 115
208 253 254 247 260 197 151 183 180 239 210 129 130 145 162 167 170 166 161 165 167 176 187 181 174 174 163 150 148 148 155 149 139 129 138 141 142 139 126 108 101 113 111 114 113 108 107 96 90
224 242 277 288 273 197 148 235 130 259 139 130 137 154 163 166 161 152 157 164 175 186 189 181 178 173 154 152 152 148 141 130 118 132 145 143 139 133 126 122 111 114 130 137 132 129 124 118 106
268 325 328 301 209 209 136 352 259 248 129 135 142 146 149 153 157 171 177 175 180 185 183 178 175 160 159 158 159 144 142 129 133 145 142 143 143 143 146 139 134 148 134 127 112 109 105 102 86
52 60 298 286 270 220 134 242 284 126 134 139 141 144 143 146 171 184 172 168 169 162 170 174 169 152 156 149 143 132 134 136 144 127 122 139 147 151 153 157 173 161 134 134 136 131 122 115 126
35 172 239 290 298 121 129 230 285 89 139 153 156 151 143 131 146 184 173 164 162 164 162 155 144 149 151 136 121 118 118 122 125 120 124 140 148 158 161 167 164 144 135 138 159 134 143 147 157
214 203 231 245 263 93 146 230 274 129 154 169 162 149 149 162 202 176 151 142 141 143 144 139 133 130 125 114 102 94 92 89 89 115 150 148 153 154 149 151 137 132 137 144 144 147 141 160 175
180 184 241 260 234 160 193 223 259 178 157 170 165 161 160 183 154 110 123 123 116 111 126 136 131 129 126 125 133 135 145 147 87 197 163 149 157 164 165 166 150 151 168 182 175 158 144 118 118
196 214 258 290 264 152 164 238 249 186 191 190 184 187 180 144 100 109 115 126 135 135 133 134 142 145 154 151 145 139 130 136 169 353 52 125 168 178 180 175 177 176 174 173 175 160 152 141 114
220 200 208 216 354 61 105 314 260 233 198 185 181 176 169 167 163 153 140 140 139 146 155 161 157 149 149 140 112 93 73 54 45 22 7 296 209 184 177 186 185 188 188 196 201 182 170 175 155
236 214 188 186 137 269 140 263 274 221 225 212 205 181 182 168 158 158 155 154 154 159 139 139 143 140 140 139 142 144 146 171 224 221 241 311 294 222 186 188 186 191 192 200 209 188 182 170 182
211 169 155 157 147 7 338 182 276 223 231 226 213 199 181 165 163 171 177 174 149 127 127 132 131 130 135 138 150 150 154 174 182 26 25 333 324 299 257 192 176 188 199 202 200 187 181 177 181
149 86 62 54 77 258 236 181 266 228 219 212 201 199 184 172 165 164 151 123 108 108 110 119 124 113 121 135 151 162 166 158 158 213 246 305 309 307 300 239 190 198 210 214 208 189 183 185 183
123 109 51 3 9 250 233 195 247 239 216 201 199 200 188 170 163 156 147 145 140 129 122 117 118 99 100 129 161 179 182 177 191 208 207 243 280 279 282 271 226 224 229 226 200 174 183 185 182
174 147 159 188 211 260 252 228 252 244 210 184 182 176 166 165 171 172 170 166 160 148 134 126 125 115 107 118 129 156 165 165 183 197 189 222 249 260 271 259 247 244 233 223 172 158 190 177 184
146 172 160 132 144 223 264 275 297 250 156 155 162 162 175 179 178 176 167 162 160 153 147 148 139 116 103 105 101 87 140 148 170 194 186 238 270 271 275 258 263 266 241 209 157 154 192 174 186
144 145 110 125 154 224 262 253 240 222 217 194 179 181 188 175 171 160 152 152 148 144 133 122 119 118 106 102 105 95 147 164 157 128 175 279 290 289 215 230 251 261 239 196 169 169 192 173 188
117 116 115 124 159 165 223 260 229 207 199 192 196 188 181 176 173 162 148 137 126 115 113 112 111 97 94 104 94 68 27 82 117 149 226 252 265 239 223 248 250 240 228 188 169 193 195 192 202
162 163 148 158 205 180 182 261 279 202 190 179 188 179 169 165 156 145 139 132 126 126 121 118 121 119 113 101 90 72 42 50 102 223 260 259 253 256 240 267 252 227 202 175 179 200 204 201 210